Find Starlink 6258

NORAD ID: 56413 Int'l Des: 2023-061 Owner: SPXS Country: US Constellation: starlink operational
LEOCIRCULAR

实时位置

正在加载3D地球...

关于 Starlink 6258

正在加载描述...

即将过境

Passes for default location (London). Set your location on the main map for personalized predictions.

高度历史

Loading altitude history...

两行轨道根数

1 56413U 23061AR 26120.43778149 .00002349 00000-0 94856-4 0 9999
2 56413 43.0006 255.2275 0001589 242.2722 117.7969 15.27581234164780
Epoch: Apr 30, 2026 • Age: 15 hours

当前状态

高度 481.9 km
速度 7.63 km/s
星下点 11.45°N, 179.85°W
发射日期 May 4, 2023
运行时间 2.9 years
类型 internet

技术详情

分类 Payload
质量 305.00 kg
干质量 290.00 kg
总质量 305.00 kg
长度 0.20 m
直径 2.80 m
跨度 9.00 m
形状 Box + pan
制造商 SPXS
平台类型 Starlink
阶段状态 In Orbit
所有者/国家 SPXS/US

Most Searched